• Join FlightAware (Why Join?)
  • Login
  • US Flag 
02:27AM EDT


 

Airport Tracker/Info


-or-


 

Live Flight TrackerFlight Track Log ✈ TCF6008 ✈ 19-May-2013 ✈ KLGA - KGSO

Flight Track Log - Related Links

Times and Time Zones

All times are in EDT time to prevent confusion due to time zone crossing. See the TCF6008 flight status page for this flight to view local times or setup timezone preferences in your user account.

Time Position Orientation Groundspeed Altitude Reporting Facility
EDT Latitude Longitude Course Direction KTS MPH feet Rate Location/Type
02:37PM 40.7344 -73.8303 270° West 166 191 2,200  Level New York Center
02:38PM 40.7000 -73.8667 219° Southwest 224 258 5,300 2,760 Climbing New York TRACON
02:39PM 40.7500 -73.9167 323° Northwest 254 292 7,700 2,760 Climbing New York TRACON
02:40PM 40.5983 -74.3719 246° West  Level FlightAware Approximate
02:40PM 40.8167 -73.9500 339° North 261 300 10,900  Level New York TRACON
02:41PM 40.5556 -74.4999 246° West  Level FlightAware Approximate
02:41PM 40.7833 -74.0833 252° West 335 386 12,300  Level New York TRACON
02:42PM 40.5274 -74.6315 242° Southwest  Level FlightAware Approximate
02:42PM 40.7500 -74.2000 249° West 369 425 14,900  Level New York TRACON
02:43PM 40.4833 -74.7557 270° West  Level FlightAware Approximate
02:44PM 40.6531 -74.4200 240° Southwest 371 427 16,400  Level New York Center
02:45PM 40.6081 -74.5297 242° Southwest 371 427 18,500 1,920 Climbing New York Center
02:46PM 40.5381 -74.6325 228° Southwest 371 427 20,300 1,740 Climbing New York Center
02:47PM 40.4475 -74.7256 218° Southwest 393 452 22,100 1,680 Climbing New York Center
02:48PM 40.3567 -74.8211 219° Southwest 408 470 23,800 1,620 Climbing New York Center
02:49PM 40.2797 -74.9336 228° Southwest 420 483 25,400 1,440 Climbing New York Center
02:50PM 40.2331 -75.0775 247° West 425 489 26,700 1,260 Climbing New York Center
02:51PM 40.1858 -75.2214 247° West 430 495 27,900 1,200 Climbing New York Center
02:52PM 40.1278 -75.3806 245° Southwest 442 509 29,100 1,020 Climbing New York Center
02:53PM 40.0436 -75.5050 229° Southwest 447 514 30,000 720 Climbing New York Center
02:54PM 39.9553 -75.6264 227° Southwest 458 527 30,600 720 Climbing New York Center
02:55PM 39.8728 -75.7533 230° Southwest 464 534 31,500 900 Climbing New York Center
02:56PM 39.7900 -75.8825 230° Southwest 469 540 32,400 840 Climbing New York Center
02:57PM 39.7092 -76.0142 231° Southwest 469 540 33,300 840 Climbing New York Center
02:59PM 39.5492 -76.2564 229° Southwest 452 520 35,000 720 Climbing Washington Center
03:00PM 39.4714 -76.3792 231° Southwest 452 520 35,500 480 Climbing Washington Center
03:01PM 39.3914 -76.5072 231° Southwest 452 520 36,000 240 Climbing Washington Center
03:02PM 39.2986 -76.6403 228° Southwest 452 520 36,000  Level Washington Center
03:03PM 39.2203 -76.7650 231° Southwest 452 520 36,000  Level Washington Center
03:04PM 39.1397 -76.8894 230° Southwest 452 520 36,000  Level Washington Center
03:05PM 39.0592 -77.0164 231° Southwest 457 526 36,000  Level Washington Center
03:06PM 38.9661 -77.1242 222° Southwest 452 520 36,000  Level Washington Center
03:07PM 38.8711 -77.2286 221° Southwest 452 520 36,000 -660 Level Washington Center
03:08PM 38.7714 -77.3383 221° Southwest 463 533 34,700 -1,500 Descending Washington Center
03:09PM 38.6761 -77.4397 220° Southwest 463 533 33,100 -1,560 Descending Washington Center
03:10PM 38.5764 -77.5489 221° Southwest 463 533 31,600 -1,500 Descending Washington Center
03:11PM 38.4786 -77.6578 221° Southwest 468 539 30,100 -840 Descending Washington Center
03:12PM 38.3789 -77.7661 220° Southwest 468 539 30,000 -60 Descending Washington Center
03:13PM 38.2789 -77.8744 220° Southwest 468 539 30,000  Level Washington Center
03:14PM 38.1786 -77.9797 220° Southwest 463 533 30,000  Level Washington Center
03:15PM 38.0786 -78.0844 220° Southwest 468 539 30,000  Level Washington Center
03:16PM 37.9886 -78.1950 224° Southwest 463 533 30,000 -240 Level Washington Center
03:17PM 37.9111 -78.3106 230° Southwest 465 535 29,600 -540 Descending Washington Center
03:18PM 37.8269 -78.4286 228° Southwest 465 535 29,000 -300 Descending Washington Center
03:19PM 37.7406 -78.5514 228° Southwest 465 535 29,000 -240 Level Washington Center
03:20PM 37.6561 -78.6714 228° Southwest 465 535 28,600 -780 Descending Washington Center
03:21PM 37.5631 -78.8011 228° Southwest 465 535 27,500 -1,080 Descending Washington Center
03:22PM 37.4828 -78.9156 229° Southwest 459 528 26,500 -1,020 Descending Washington Center
03:23PM 37.4022 -79.0297 228° Southwest 454 522 25,500 -960 Descending Washington Center
03:24PM 37.3219 -79.1383 227° Southwest 448 516 24,600 -960 Descending Washington Center
03:25PM 37.2558 -79.2606 236° Southwest 443 510 23,600 -1,020 Descending Washington Center
03:26PM 37.1994 -79.3883 241° Southwest 431 496 22,600 -1,020 Descending Washington Center
03:27PM 37.1519 -79.5033 243° Southwest 418 481 21,600 -1,020 Descending Washington Center
03:28PM 37.1019 -79.6283 243° Southwest 413 475 20,600 -1,200 Descending Washington Center
03:29PM 37.0417 -79.7450 237° Southwest 408 470 19,300 -1,800 Descending Washington Center
03:30PM 36.9533 -79.8258 216° Southwest 399 459 17,200 -2,220 Descending Washington Center
03:31PM 36.8589 -79.8986 212° Southwest 381 438 14,900 -2,280 Descending Washington Center
03:33PM 36.7588 -79.9612 207° Southwest  Level FlightAware Approximate
03:40PM 36.1013 -79.9411 180° South  Level Estimated
03:41PM 36.1000 -79.9333 15° North  Level FlightAware Approximate
03:42PM 36.1013 -79.9411 15° North  Level Estimated
03:43PM 36.1000 -79.9333 15° North  Level FlightAware Approximate
03:44PM 36.1013 -79.9411 15° North  Level Estimated
03:45PM 36.1000 -79.9333 15° North  Level FlightAware Approximate
03:46PM 36.1013 -79.9411 15° North  Level Estimated